ONEWEB-0027 (45432 NORAD) Tracking and Keplerian Element Data

This shows tracking and keplerian element data for the satellite.

Feedback or suggestion? Click here.




ElementValue
Catalog45432
NameONEWEB-0027
Epoch Orbit190
Epoch Day94.25001157
Epoch Year2020
RAAN134.4639
Inclination87.3985
Eccentricity0.0023647
Argument of Perigee258.3298
Mean Anonmoly3.2472
Mean Motion15.37641911
Decay Rate-0.00063295
L11 45432U 20020J 20094.25001157 -.00063295 00000-0 -17160-2 0 9992
L22 45432 87.3985 134.4639 0023647 258.3298 3.2472 15.37641911 1905

Live tracking and technical data element details for ONEWEB-0027 (NORAD 45432). ONEWEB-0027 can be tracked NOW for your location showing map with azimuth and elevation plus other details from your city location.

Track the satellite on the map from your city or location and see movement details for azimuth, elevation, latitude, longitude, range, height, and movement on the map or in text.







IsCatalogInMostPopularTable: catalog: 45432, numindb: 6
Update: records affected: 1



GetName: 45432 ONEWEB-0027

Hit Count: updated at: Tue, 07 Apr 2020 16:17:30 GMT